Overview Statistics Trail Chart Weather Telemetry Raw packets
 

This is the latest recevied weather packets stored in our database for station/object K7FLA. If no packets are shown the sender has not sent any weather packets the latest 10 day(s).

<< 76 77 78 79 80 81 82 >>
Time Temp. Humidity Pressure Rain* Wind** Luminosity Snow
1788116540 36.11° C 27% 1095.3 hPa 0 mm - 781 W/m² -
1788116238 36.67° C 26% 1095.1 hPa 0 mm - 778 W/m² -
1788115935 36.67° C 27% 1095.2 hPa 0 mm - 773 W/m² -
1788115633 36.67° C 28% 1095.2 hPa 0 mm - 769 W/m² -
1788115333 36.67° C 30% 1095.4 hPa 0 mm - 763 W/m² -
1788115028 36.11° C 26% 1095.4 hPa 0 mm - 757 W/m² -
1788114723 36.11° C 27% 1095.2 hPa 0 mm - 752 W/m² -
1788114418 36.11° C 27% 1095.4 hPa 0 mm - 747 W/m² -
1788114114 36.11° C 26% 1095.3 hPa 0 mm - 740 W/m² -
1788113810 36.11° C 28% 1095.5 hPa 0 mm - 734 W/m² -
1788113504 36.67° C 27% 1095.5 hPa 0 mm - 724 W/m² -
1788113203 36.67° C 26% 1095.6 hPa 0 mm - 717 W/m² -
1788112898 36.11° C 27% 1095.4 hPa 0 mm - 709 W/m² -
1788112597 36.11° C 25% 1095.4 hPa 0 mm - 700 W/m² -
1788112292 36.11° C 27% 1095.4 hPa 0 mm - 690 W/m² -
1788111988 36.11° C 26% 1095.3 hPa 0 mm - 680 W/m² -
1788111683 36.11° C 27% 1095.4 hPa 0 mm - 671 W/m² -
1788111378 36.11° C 29% 1095.4 hPa 0 mm - 656 W/m² -
1788111073 35.56° C 28% 1095.4 hPa 0 mm - 645 W/m² -
1788110770 35.56° C 30% 1095.4 hPa 0 mm - 633 W/m² -
1788110466 35.56° C 28% 1095.3 hPa 0 mm - 620 W/m² -
1788110161 35.56° C 27% 1095.5 hPa 0 mm - 607 W/m² -
1788109856 35.56° C 29% 1095.4 hPa 0 mm - 592 W/m² -
1788109556 35° C 30% 1095.4 hPa 0 mm - 579 W/m² -
1788109255 34.44° C 30% 1095.3 hPa 0 mm - 566 W/m² -

* Rain latest hour (hover to see other rain measurements)
** Current wind speed in m/s (hover to see current wind gust speed)